Location: Cuiry
(49.3858°N, 3.7708°E)
Time: 15:03:17
(UTC+00:00)

Cosmos 1624 Rocket - Pass Details

Date: 12 January 2026
Orbit: 752 x 780 km, 74.0° (Epoch: 16 February)

Event Time Altitude Azimuth Distance (km) Brightness Sun altitude
Rises 16:59:41 0° 180° (S) 3,219 7.6 -8.0°
Reaches altitude 10° 17:02:08 10° 173° (S) 2,302 6.7 -8.3°
Maximum altitude 17:07:02 42° 104° (ESE) 1,097 4.5 -9.1°
Drops below altitude 10° 17:11:59 10° 35° (NE) 2,334 6.0 -9.8°
Enters shadow 17:12:47 - 33° (NNE) 2,625 6.3 -9.9°
